Theta_e
297 298 298 297 298 301 303 305 301 305 308 313 316 318 324 327 328 328 329 333 332 336 339 346 350 359 359 356 359 357 359 357 360 366 367 367 366 368 369 370 370 371 371 371
293 297 297 295 297 298 299 301 302 306 306 315 315 320 321 322 327 328 330 333 336 338 340 343 348 352 359 359 360 361 361 358 362 366 368 367 367 368 369 370 370 371 371 370
289 294 295 291 296 297 298 301 301 300 308 315 314 316 322 327 326 327 329 332 336 339 342 344 343 351 355 361 360 361 364 362 363 366 367 368 368 369 369 370 370 370 370 370
289 292 283 296 302 303 301 301 303 304 307 311 315 319 321 327 324 324 327 329 331 336 341 344 344 344 352 355 363 363 363 365 364 366 367 369 370 369 371 370 370 370 370 371
286 287 292 294 300 300 299 300 309 305 307 311 315 316 318 323 325 323 325 328 330 333 339 345 347 348 349 355 359 362 363 365 365 366 367 369 368 369 371 370 371 370 372 372
289 285 283 294 300 303 304 295 308 309 308 308 311 308 315 320 321 322 324 327 329 333 341 344 348 351 349 348 358 361 362 365 368 368 368 369 370 370 371 371 370 364 367 372
289 287 291 299 302 302 292 295 305 304 305 306 304 309 314 319 320 321 323 323 328 332 339 348 352 357 356 353 355 362 362 366 370 370 371 372 373 373 373 370 366 369 369 372
290 286 284 301 301 295 302 306 304 304 303 303 306 310 311 316 319 319 320 321 326 326 333 340 354 360 361 358 362 368 367 366 368 371 366 366 372 372 372 372 370 370 368 367
292 292 299 304 302 305 306 303 303 304 306 306 307 309 312 313 317 317 317 318 321 323 328 328 338 354 356 368 369 368 368 367 368 369 368 369 370 370 365 370 360 360 359 357
292 297 300 301 304 304 303 303 303 305 306 305 306 310 310 311 315 316 315 315 318 321 324 324 330 333 341 345 362 365 367 367 367 366 366 367 364 363 360 358 358 356 356 355
291 296 296 300 298 299 300 302 303 304 306 305 306 307 311 311 313 314 312 315 319 320 320 322 325 325 328 331 335 359 359 360 363 361 361 363 363 360 359 363 351 357 354 355
286 291 290 293 298 299 299 300 302 303 305 307 307 307 309 311 312 312 312 316 318 321 321 321 322 321 324 328 327 344 355 356 356 357 359 359 358 355 316 323 313 313 314 334
291 296 295 296 298 300 298 300 301 303 305 306 308 311 310 310 310 310 313 315 319 320 320 321 322 321 323 324 325 328 338 346 358 351 358 356 358 357 354 335 313 315 314 313
298 298 293 295 294 297 297 300 302 304 307 307 310 314 309 309 310 312 314 317 321 319 319 321 320 320 322 324 325 326 330 323 341 353 356 355 356 357 356 357 355 354 322 326
298 299 297 296 296 295 297 298 298 299 303 309 310 310 310 309 310 312 314 315 317 318 315 316 316 317 320 324 325 326 331 327 331 340 340 342 360 359 358 357 354 350 350 323
298 298 298 296 294 294 294 295 295 297 300 303 305 307 311 311 309 308 308 311 310 309 311 313 314 315 320 323 323 326 328 326 326 338 340 348 350 344 344 344 343 345 344 354
297 296 296 296 294 293 293 295 296 296 299 299 302 304 306 305 304 305 305 306 308 307 309 310 311 315 317 320 321 324 332 333 328 331 334 339 338 341 342 341 345 348 342 338
301 300 300 299 298 296 296 296 296 297 297 299 300 301 303 303 300 301 303 305 305 305 306 308 312 314 317 317 316 318 321 322 327 330 326 327 330 333 339 341 341 341 343 341
302 301 300 300 301 300 299 298 296 297 298 298 299 299 300 301 302 302 303 303 302 301 303 307 310 312 310 312 313 316 321 321 323 325 326 323 327 331 331 333 334 337 339 340
301 302 301 301 302 302 300 301 299 298 299 299 298 298 298 299 300 302 302 301 302 302 305 305 306 305 308 309 309 310 313 315 317 320 323 326 329 329 329 322 330 332 335 337
302 302 301 301 301 302 302 302 301 301 301 300 298 298 298 299 300 300 299 298 301 305 304 304 304 304 303 306 306 304 303 303 303 304 308 311 317 319 319 320 324 322 322 322
301 302 302 302 301 301 302 302 302 302 301 302 302 300 298 298 299 299 300 300 302 303 302 301 302 303 302 302 300 299 299 298 297 298 297 298 298 299 299 301 301 302 302 302
301 302 302 302 301 301 302 302 303 302 303 303 301 301 301 299 299 297 297 302 302 303 303 302 302 302 301 300 299 298 297 296 296 295 295 295 295 295 295 294 295 295 295 295
303 303 302 303 302 302 301 303 302 303 304 304 303 304 302 299 299 302 302 303 302 303 302 302 303 302 301 301 300 299 298 296 295 295 294 293 293 293 293 293 293 293 293 293
303 303 302 301 301 300 302 303 303 303 304 303 303 304 305 302 300 301 302 303 302 302 301 302 302 301 300 300 299 299 298 297 297 297 295 294 294 293 293 292 292 292 292 292
302 300 302 303 301 300 300 302 299 302 302 301 302 303 304 304 303 302 302 301 302 301 302 301 302 301 300 299 299 299 298 298 298 297 296 295 294 294 293 293 293 293 292 292
301 296 300 303 304 302 301 301 300 299 301 301 302 303 304 304 304 304 302 302 301 301 302 301 302 301 300 301 300 300 300 298 296 298 298 298 298 296 295 294 294 293 293 293
Wind_Speed
19 19 16 14 16 13 16 18 19 18 18 15 10 12 14 7 4 5 5 8 4 11 14 17 18 17 19 20 19 21 20 21 21 20 19 18 19 18 17 16 15 15 14 14
19 20 16 19 17 18 19 21 22 23 19 19 15 10 3 2 5 6 6 8 7 9 10 8 15 17 17 19 19 19 20 21 19 19 19 20 19 18 17 16 16 16 15 15
17 18 21 23 22 20 20 22 21 22 18 16 10 5 12 12 6 7 9 9 10 10 9 11 11 15 17 18 17 18 17 18 18 18 19 19 19 18 18 17 16 16 16 15
12 13 17 13 6 10 13 16 23 21 21 19 11 9 13 7 7 9 11 12 11 11 11 10 12 16 16 19 19 18 19 18 18 19 19 18 18 18 17 16 17 16 16 16
8 14 15 8 10 6 5 12 21 20 23 16 14 14 14 8 10 10 13 14 13 13 16 12 13 15 15 18 19 19 19 20 20 19 19 19 19 18 16 15 15 15 15 16
11 13 16 10 4 3 3 11 15 15 15 16 16 9 11 16 14 14 14 13 14 17 18 13 15 16 17 16 18 21 22 20 18 18 18 19 19 18 16 15 16 15 16 16
13 13 15 8 7 5 5 4 11 12 15 14 11 13 19 22 13 13 14 16 16 14 14 16 15 16 16 18 20 18 18 18 17 18 18 17 16 15 15 16 15 14 14 13
12 16 21 10 6 8 9 7 10 11 8 11 13 15 16 18 13 12 14 17 17 14 12 16 19 17 12 16 12 13 15 17 17 17 16 15 16 14 14 13 13 13 13 12
7 7 2 1 5 10 12 9 11 13 12 11 15 14 13 14 14 11 14 14 15 14 12 15 17 19 7 10 10 12 14 14 15 16 16 14 16 15 14 13 14 14 13 14
13 12 11 9 11 7 9 10 13 15 12 13 12 15 11 12 13 11 11 13 12 13 14 14 16 18 18 17 6 10 13 13 14 15 15 15 14 14 14 14 14 13 13 13
8 15 17 1 11 12 13 14 16 16 13 14 12 12 12 10 12 11 11 11 10 11 12 14 14 15 17 17 17 6 11 14 14 14 15 15 13 14 14 14 11 14 12 12
4 13 11 13 12 14 13 14 16 16 16 14 12 10 10 10 9 11 11 10 7 8 10 13 14 15 16 18 17 14 6 8 12 13 14 14 14 9 8 10 11 8 7 4
5 10 11 13 14 11 13 15 16 16 17 15 12 9 7 7 8 10 9 9 6 6 8 9 11 13 15 15 14 14 12 8 9 12 14 14 13 13 12 3 2 6 8 6
6 10 9 10 9 13 14 14 13 13 17 16 10 6 0 4 8 7 7 9 4 5 7 8 9 12 15 15 14 13 11 12 10 6 8 13 13 13 11 13 11 11 9 11
4 5 6 10 11 12 14 14 13 12 14 8 6 4 3 2 4 6 8 10 9 7 8 10 10 10 12 13 13 13 6 8 11 9 8 6 4 8 7 6 9 10 7 5
4 8 10 11 14 14 15 15 15 14 12 11 7 5 4 6 7 8 9 10 9 8 10 10 11 11 11 10 10 8 9 10 9 7 6 5 3 6 5 7 7 8 6 2
9 9 10 10 10 11 14 13 12 13 12 11 9 6 8 10 8 7 7 9 8 8 10 10 11 11 10 10 10 6 4 6 11 6 5 5 0 5 7 4 4 2 3 6
5 8 8 9 8 4 7 11 12 12 12 12 10 8 10 10 8 7 7 9 7 8 10 12 13 11 9 11 11 8 4 4 3 3 6 7 6 6 5 4 3 3 5 6
7 7 8 9 9 9 6 5 11 10 9 9 8 10 9 9 8 8 8 9 9 10 13 14 18 12 11 14 13 7 9 9 8 4 3 6 5 12 5 6 7 7 10 10
6 7 8 9 8 8 9 8 7 6 7 8 9 11 12 12 10 7 8 12 11 8 12 15 13 12 13 12 14 10 11 13 11 9 8 8 7 11 7 4 6 6 7 7
9 7 9 9 10 8 8 7 7 6 5 4 8 9 9 8 9 9 9 7 12 13 14 17 15 11 9 11 11 9 10 8 7 8 10 10 11 11 12 13 13 13 13 13
8 8 8 8 9 8 7 5 7 7 8 8 7 8 10 10 8 8 10 9 8 15 12 10 9 18 13 18 12 13 12 12 11 10 10 10 10 11 11 11 11 10 10 9
8 8 8 8 7 8 6 5 6 6 7 11 9 8 11 8 6 7 8 9 9 11 9 10 15 19 21 13 11 12 12 12 12 11 9 9 10 10 9 10 9 9 9 9
8 5 6 6 7 5 6 8 5 7 6 9 11 11 9 9 6 6 7 6 6 10 11 10 12 18 16 10 12 13 11 11 11 10 10 13 10 9 9 9 9 9 9 10
10 5 6 7 6 5 7 5 7 7 7 9 7 7 10 8 7 6 6 9 6 8 9 15 17 15 10 11 10 11 13 13 12 10 10 10 10 10 10 10 10 10 9 9
5 4 4 6 9 6 6 5 8 4 10 4 6 5 7 4 5 6 6 8 10 8 10 10 10 10 9 9 9 10 11 11 12 12 12 9 10 9 9 9 9 9 8 9
2 7 2 1 2 5 7 6 4 7 8 1 8 5 6 4 6 4 3 6 7 8 7 8 9 10 10 9 9 9 7 9 11 9 10 10 10 9 8 8 8 7 7 8
Wind_Direction
280 287 278 282 296 291 257 265 273 263 235 240 308 186 93 80 34 359 341 322 289 258 211 189 192 193 193 206 202 200 198 200 201 199 200 200 201 200 199 203 201 205 207 210
271 267 264 262 247 249 261 263 272 276 278 291 6 18 357 164 82 345 337 335 332 324 312 215 192 198 193 202 205 204 196 200 199 195 196 201 201 200 200 199 203 203 210 211
265 260 249 242 242 239 244 246 249 252 253 272 253 292 359 37 16 342 327 333 331 321 303 296 273 203 207 198 209 204 205 196 197 193 197 201 198 197 198 199 199 206 209 212
280 285 258 252 240 269 269 245 241 250 263 273 307 341 328 357 14 334 331 326 322 308 304 285 264 268 203 206 198 212 203 197 196 194 198 197 199 201 197 197 202 204 210 211
259 263 261 246 45 21 350 231 352 249 230 271 12 335 292 306 16 349 334 320 313 310 295 293 281 279 267 197 200 202 208 206 196 196 194 198 200 198 198 201 205 210 211 212
248 266 256 78 80 15 313 242 13 2 4 354 342 288 44 352 348 355 337 334 320 315 312 295 276 248 251 235 202 200 207 203 197 198 197 201 201 199 197 200 208 213 214 213
230 249 267 60 98 265 239 57 358 353 345 337 329 327 322 312 339 346 342 341 330 332 316 304 289 275 232 239 208 206 199 200 199 198 200 202 201 202 200 201 208 212 219 215
237 248 252 61 310 274 24 320 319 319 318 315 304 298 303 311 326 343 343 350 344 342 338 337 328 302 226 226 213 188 192 195 197 195 200 194 199 198 201 201 207 209 213 221
284 244 172 102 289 305 297 300 306 305 296 300 293 293 295 302 315 338 343 348 350 342 353 351 348 344 253 224 166 179 189 193 196 194 196 203 191 194 196 199 211 212 210 219
315 265 294 328 316 347 350 305 293 284 277 288 294 302 299 306 315 327 339 339 346 355 355 349 357 3 5 0 242 191 192 199 196 194 197 207 187 193 203 202 205 218 214 220
269 293 330 203 350 324 316 294 289 284 272 270 284 291 307 305 315 326 325 324 340 350 355 357 2 0 1 359 350 252 204 206 198 197 193 197 206 197 202 211 207 206 219 213
300 310 289 285 297 308 297 295 287 285 280 257 266 274 290 302 319 320 313 305 338 353 359 358 4 1 358 359 357 332 224 211 198 204 184 201 202 171 61 124 126 100 68 12
282 321 310 314 311 319 310 301 291 279 274 262 257 254 270 305 306 309 312 312 309 19 3 1 4 3 356 352 349 355 351 344 208 221 180 203 191 196 183 155 120 134 136 142
345 344 351 344 330 338 331 322 304 280 260 253 243 227 276 310 299 304 322 327 346 35 360 7 18 11 353 345 347 350 354 334 343 230 189 196 195 189 193 170 178 185 217 216
350 21 48 356 349 360 348 347 359 358 336 179 191 207 185 200 284 11 8 353 340 25 12 357 13 5 343 336 343 342 350 355 341 353 7 342 100 167 164 176 197 177 162 212
44 15 25 40 13 5 2 6 6 359 357 356 51 22 149 97 64 40 14 7 12 1 360 349 356 354 333 343 333 331 349 314 312 311 332 322 183 214 234 229 198 205 225 187
0 19 13 40 48 22 12 6 6 0 353 359 8 35 71 87 63 39 27 21 6 17 357 352 347 346 337 333 356 318 258 263 241 262 258 261 157 309 270 238 204 137 323 105
8 11 29 22 44 55 32 22 9 7 2 357 1 26 57 67 65 37 21 26 7 12 10 350 344 331 354 355 349 317 308 322 288 347 343 286 33 289 307 289 232 206 254 96
9 17 25 24 8 41 67 74 34 11 13 4 15 35 47 46 46 46 37 40 16 15 6 359 343 353 8 3 348 318 9 8 344 319 302 19 256 258 252 245 249 235 200 187
34 32 26 33 48 37 25 97 113 26 359 13 25 32 36 34 25 41 47 41 23 8 24 7 5 11 2 18 16 8 22 11 355 342 15 329 342 320 313 293 275 278 326 315
20 42 43 33 59 63 51 41 46 74 68 91 56 46 42 43 38 25 37 36 19 24 31 25 24 22 19 22 40 47 53 42 23 13 28 4 1 16 17 9 17 25 18 12
10 24 13 40 53 52 70 51 56 56 51 53 68 107 62 47 46 53 44 42 22 32 32 30 27 37 37 42 41 41 42 45 43 39 32 25 30 33 32 26 26 25 27 24
7 6 1 8 22 68 47 58 63 67 66 75 54 57 85 71 51 43 47 42 59 48 53 41 40 47 46 45 44 45 47 48 47 43 43 41 42 43 43 40 40 40 36 33
351 350 353 349 330 36 70 82 56 46 81 85 76 55 66 81 56 67 84 88 65 68 58 43 44 48 41 38 46 55 54 53 53 49 51 47 49 48 49 47 49 45 44 41
313 6 331 330 331 5 55 61 73 65 91 94 73 77 86 70 64 80 79 82 58 59 64 60 53 53 50 45 44 45 47 46 41 47 44 48 48 47 46 45 46 46 48 47
280 314 30 20 350 358 37 23 64 44 61 46 95 108 95 118 103 60 64 90 72 58 56 59 59 65 67 69 66 59 50 44 51 53 49 45 47 52 50 45 43 43 44 47
54 281 21 303 157 26 35 29 21 60 93 4 60 39 67 74 82 111 95 72 53 77 64 48 46 71 55 56 79 88 95 86 61 52 52 56 56 59 53 56 58 55 49 53